Location: Arroyo Grande
(40.2671°N, 4.2512°W)
Time: 01:07:06
(UTC+00:00)

Cosmos 2278 Rocket - Pass Details

Date: 03 October 2023
Orbit: 842 x 844 km, 71.0° (Epoch: 03 December)

Event Time Altitude Azimuth Distance (km) Brightness Sun altitude
Rises 20:28:46 0° 321° (NW) 3,408 6.2 -29.4°
Reaches altitude 10° 20:31:47 10° 306° (NW) 2,468 5.5 -29.9°
Maximum altitude 20:35:52 21° 260° (W) 1,815 4.4 -30.6°
Drops below altitude 10° 20:39:56 10° 213° (SSW) 2,454 4.7 -31.3°
Enters shadow 20:40:52 - 207° (SSW) 2,722 4.9 -31.5°
